This demonstration page uses our WeatherBlox Daily Observations layout. Learn more.

Left ArrowRight Arrow

Hourly Observations for April 3, 2020

Temp ( °F °C ) Dew Point ( °F °C ) Humidity (%) Winds ( mph kmh ) Pressure ( in mb ) Visibility ( mi km ) Precip ( " mm )
12:54 am 00:54 Cloudy with Mist and Fog 25 -3.9 21 -6.1 85 85 NNW 20 31 30.17 1022 4 6.43736 0 0
1:38 am 01:38 Cloudy 25 -3.9 20 -6.7 81 81 NNW 17 28 30.25 1024 8 12.87472 0 0
1:54 am 01:54 Cloudy 25 -3.9 20 -6.7 81 81 N 21 33 30.19 1022 10 16.0934 0 0
2:21 am 02:21 Cloudy 25 -3.9 19 -7.2 78 78 NNW 15 24 30.25 1024 10 16.0934 0 0
2:41 am 02:41 Cloudy 25 -3.9 19 -7.2 78 78 NNW 20 31 30.25 1024 10 16.0934 0 0
2:54 am 02:54 Cloudy 25 -3.9 20 -6.7 81 81 NNW 16 26 30.21 1023 10 16.0934 0 0
3:54 am 03:54 Cloudy 25 -3.9 18 -7.8 75 75 NNW 25 41 30.19 1022 10 16.0934 0 0
4:22 am 04:22 Cloudy with Haze 24 -4.4 19 -7.2 81 81 NNW 17 28 30.26 1025 4 6.43736 0 0
4:27 am 04:27 Cloudy with Haze 24 -4.4 19 -7.2 81 81 NW 14 22 30.28 1025 2.5 4.02335 0 0
4:39 am 04:39 Cloudy with Haze 24 -4.4 19 -7.2 81 81 NNW 21 33 30.26 1025 1.75 2.816345 0 0
4:48 am 04:48 Cloudy with Haze 25 -4 19 -7 80 80 NNW 18 30 30.27 1025 2 3.21868 0 0
4:54 am 04:54 Cloudy with Haze 24 -4.4 19 -7.2 81 81 N 20 31 30.22 1023 2 3.21868 0 0
5:00 am 05:00 Cloudy with Haze 24 -4.4 19 -7.2 81 81 N 20 31 30.25 1024 3 4.82802 0 0
5:11 am 05:11 Cloudy with Haze 24 -4.4 19 -7.2 81 81 NNW 17 28 30.27 1025 3 4.82802 0 0
5:54 am 05:54 Cloudy 24 -4.4 19 -7.2 81 81 NNW 20 31 30.22 1023 10 16.0934 0 0
6:19 am 06:19 Cloudy 24 -4.4 18 -7.8 77 77 NNW 16 26 30.28 1025 10 16.0934 0 0
6:54 am 06:54 Cloudy 24 -4.4 19 -7.2 81 81 NNW 16 26 30.25 1025 10 16.0934 0 0
7:22 am 07:22 Cloudy 24 -4.4 18 -7.8 77 77 NNW 15 24 30.3 1026 10 16.0934 0 0
7:54 am 07:54 Cloudy 24 -4.4 17 -8.3 75 75 NNW 18 30 30.27 1025 10 16.0934 0 0
8:36 am 08:36 Cloudy 23 -5 17 -8.3 78 78 NNW 20 31 30.34 1027 10 16.0934 0 0
8:54 am 08:54 Mostly Cloudy 24 -4.4 17 -8.3 75 75 NNW 17 28 30.29 1026 10 16.0934 0 0
9:54 am 09:54 Mostly Cloudy 27 -2.8 20 -6.7 75 75 NNW 22 35 30.3 1026 10 16.0934 0 0
10:54 am 10:54 Cloudy 27 -2.8 20 -6.7 75 75 NNW 18 30 30.32 1027 10 16.0934 0 0
11:10 am 11:10 Cloudy 27 -2.8 20 -6.7 75 75 NNW 17 28 30.35 1028 10 16.0934 0 0
11:34 am 11:34 Cloudy 28 -2.2 20 -6.7 72 72 NNW 18 30 30.36 1028 10 16.0934 0 0
11:54 am 11:54 Cloudy 28 -2.2 20 -6.7 72 72 N 22 35 30.33 1027 10 16.0934 0 0
12:54 pm 12:54 Cloudy 29 -1.7 22 -5.6 75 75 NNW 18 30 30.33 1027 10 16.0934 0 0
1:54 pm 13:54 Cloudy 32 0 23 -5 69 69 NNW 15 24 30.31 1026 10 16.0934 0 0
2:54 pm 14:54 Mostly Cloudy 34 1.1 24 -4.4 67 67 NNW 16 26 30.29 1026 10 16.0934 0 0
3:52 pm 15:52 Partly Cloudy 36 2 25 -4 65 65 N 20 31 30.29 1026 10 16.0934 0 0
3:54 pm 15:54 Partly Cloudy 35 1.7 23 -5 61 61 N 18 30 30.28 1025 10 16.0934 0 0
4:54 pm 16:54 Mostly Cloudy 37 2.8 23 -5 57 57 NNW 18 30 30.27 1025 10 16.0934 0 0
5:54 pm 17:54 Mostly Cloudy 36 2.2 23 -5 59 59 NNW 16 26 30.29 1026 10 16.0934 0 0
6:30 pm 18:30 Partly Cloudy 34 1.1 22 -5.6 61 61 NNW 14 22 30.3 1026 10 16.0934 0 0
6:41 pm 18:41 Mostly Cloudy 35 1.7 22 -5.6 59 59 NNW 15 24 30.3 1026 10 16.0934 0 0
6:54 pm 18:54 Mostly Cloudy 34 1.1 22 -5.6 61 61 NNW 16 26 30.3 1026 10 16.0934 0 0
7:54 pm 19:54 Cloudy 32 0 22 -5.6 66 66 N 14 22 30.31 1027 10 16.0934 0 0
8:54 pm 20:54 Cloudy 30 -1.1 22 -5.6 72 72 N 15 24 30.32 1027 10 16.0934 0 0
9:54 pm 21:54 Cloudy 29 -1.7 21 -6.1 72 72 NNE 17 28 30.33 1027 10 16.0934 0 0
10:38 pm 22:38 Cloudy 29 -1.7 22 -5.6 75 75 N 13 20 30.36 1028 10 16.0934 0 0
10:54 pm 22:54 Cloudy 29 -1.7 21 -6.1 72 72 N 14 22 30.34 1027 10 16.0934 0 0
11:54 pm 23:54 Cloudy 28 -2.2 21 -6.1 75 75 N 14 22 30.34 1028 10 16.0934 0 0

Powered by AerisWeather